Weather History for Trang, Thailand

Change the Weather History Date:

Wednesday, December 18, 2013

  Actual Average Record
Temperature  
Mean Temperature 80 °F -  
Max Temperature 87 °F 88 °F - ()
Min Temperature 74 °F 71 °F - ()
Cooling Degree Days 16    
Growing Degree Days 30 (Base 50)    
Moisture  
Dew Point 74 °F    
Average Humidity 81    
Maximum Humidity 100    
Minimum Humidity 60    
Precipitation  
Precipitation 0.00 in 0.09 in - ()
Sea Level Pressure  
Sea Level Pressure 29.78 in    
Wind  
Wind Speed 3 mph ()    
Max Wind Speed 12 mph    
Max Gust Speed -    
Visibility 4.9 miles    
Events Rain    
T = Trace of Precipitation, MM = Missing Value Source: Averaged Metar Reports

Daily Weather History Graph

Daily Weather History Graph

Search for Another Location

Airport:

Trip Planner

Search our weather history database for the weather conditions in past years. The results will help you decide how hot, cold, wet, or windy it might be!

Date:

Astronomy

Dec. 18, 2013 Rise Set
Actual Time 6:27 AM ICT 6:08 PM ICT
Civil Twilight 6:04 AM ICT 6:31 PM ICT
Nautical Twilight 5:38 AM ICT 6:57 PM ICT
Astronomical Twilight 5:12 AM ICT 7:23 PM ICT
Moon 6:59 PM ICT (12/18) 6:56 AM ICT (12/18)
Length of Visible Light 12h 26m
Length of Day
11h 41m
Full, 99% of the Moon is Illuminated
Dec 18
Full
Dec 25
Last Quarter
Jan 1
New
Jan 8
First Quarter
Jan 16
Full

Hourly Weather History & Observations

Time (ICT) Temp. Heat Index Dew Point Humidity Pressure Visibility Wind Dir Wind Speed Gust Speed Precip Events Conditions
1:00 AM 77 °F - 76 °F 95% 29.81 in 3 mi Calm Calm - - Rain Light Rain
4:00 AM 76 °F - 75 °F 96% 29.77 in 4 mi Calm Calm - -   Mist
7:00 AM 76 °F - 75 °F 95% 29.81 in 2 mi Calm Calm - -   Mist
7:00 AM 75.2 °F - 75.2 °F 100% 29.77 in 1.9 mi Calm Calm - N/A   Mostly Cloudy
8:00 AM 75.2 °F - 75.2 °F 100% 29.80 in 2.5 mi Calm Calm - N/A   Mostly Cloudy
9:00 AM 77.0 °F - 77.0 °F 100% 29.83 in 3.7 mi Calm Calm - N/A   Mostly Cloudy
10:00 AM 80 °F - 76 °F 83% 29.86 in 5 mi Calm Calm - -   Mist
10:00 AM 78.8 °F - 78.8 °F 100% 29.83 in 5.0 mi NNE 3.5 mph - N/A   Mostly Cloudy
11:00 AM 82.4 °F 89.5 °F 75.2 °F 79% 29.80 in 5.6 mi NE 6.9 mph - N/A   Mostly Cloudy
12:00 PM 84.2 °F 90.9 °F 73.4 °F 70% 29.80 in 5.6 mi ENE 9.2 mph - N/A   Mostly Cloudy
1:00 PM 86 °F - 76 °F 64% 29.80 in 6 mi ENE 8.1 mph - -   Scattered Clouds
1:00 PM 86.0 °F 93.4 °F 73.4 °F 66% 29.77 in 6.2 mi ENE 10.4 mph - N/A   Mostly Cloudy
2:00 PM 86.0 °F 93.4 °F 73.4 °F 66% 29.74 in 6.2 mi NE 9.2 mph - N/A   Mostly Cloudy
3:00 PM 84.2 °F 90.9 °F 73.4 °F 70% 29.71 in 6.2 mi ENE 11.5 mph - N/A   Mostly Cloudy
4:00 PM 84 °F - 72 °F 60% 29.75 in 6 mi ENE 8.1 mph - -   Scattered Clouds
4:00 PM 84.2 °F 89.6 °F 71.6 °F 66% 29.71 in 6.2 mi ENE 9.2 mph - N/A   Mostly Cloudy
5:00 PM 80.6 °F 84.6 °F 71.6 °F 74% 29.71 in 6.2 mi NE 10.4 mph - N/A   Mostly Cloudy
7:00 PM 79 °F - 72 °F 73% 29.79 in 6 mi NE 5.8 mph - -   Scattered Clouds
10:00 PM 78 °F - 71 °F 73% 29.85 in 6 mi NE 5.8 mph - -   Scattered Clouds